Time,TemperatureF,DewpointF,PressureIn,WindDirection,WindDirectionDegrees,WindSpeedMPH,WindSpeedGustMPH,Humidity,HourlyPrecipIn,Conditions,Clouds,dailyrainin,SoftwareType,DateUTC
2013-07-29 07:59:00,65.6,-37.9,30.08,NNE,18,0.0,4.0,1,0.00,,,0.08,Wunderground v.1.15,2013-07-29 12:59:00,
2013-07-29 08:04:00,65.8,-37.8,30.08,NNE,18,0.0,4.0,1,0.00,,,0.08,Wunderground v.1.15,2013-07-29 13:04:00,
2013-07-29 08:09:00,65.9,-37.7,30.09,NNE,18,0.0,0.0,1,0.00,,,0.08,Wunderground v.1.15,2013-07-29 13:09:00,
2013-07-29 08:19:00,66.0,-37.6,30.08,NNE,20,0.0,0.0,1,0.00,,,0.08,Wunderground v.1.15,2013-07-29 13:19:00,
2013-07-29 08:29:00,66.5,-37.3,30.09,NNE,20,0.0,0.0,1,0.00,,,0.08,Wunderground v.1.15,2013-07-29 13:29:00,
2013-07-29 08:39:00,66.8,-37.2,30.09,ENE,63,0.0,0.0,1,0.00,,,0.08,Wunderground v.1.15,2013-07-29 13:39:00,
2013-07-29 08:49:00,67.2,-36.9,30.09,North,11,0.0,0.0,1,0.00,,,0.08,Wunderground v.1.15,2013-07-29 13:49:00,
2013-07-29 08:54:00,67.4,-36.8,30.09,NNW,333,0.0,0.0,1,0.00,,,0.08,Wunderground v.1.15,2013-07-29 13:54:00,
2013-07-29 09:04:00,67.7,-36.6,30.09,ESE,107,0.0,0.0,1,0.00,,,0.08,Wunderground v.1.15,2013-07-29 14:04:00,
2013-07-29 09:14:00,68.0,-36.4,30.08,North,3,0.0,2.0,1,0.00,,,0.08,Wunderground v.1.15,2013-07-29 14:14:00,
2013-07-29 09:24:00,68.4,-36.2,30.08,NNE,30,1.0,4.0,1,0.00,,,0.08,Wunderground v.1.15,2013-07-29 14:24:00,
2013-07-29 09:34:00,69.0,-35.8,30.08,NE,44,1.0,3.0,1,0.00,,,0.08,Wunderground v.1.15,2013-07-29 14:34:00,
2013-07-29 09:44:00,69.2,-35.7,30.08,NNE,27,2.0,2.0,1,0.00,,,0.08,Wunderground v.1.15,2013-07-29 14:44:00,
2013-07-29 09:54:00,69.5,-35.5,30.09,NNE,18,0.0,0.0,1,0.00,,,0.08,Wunderground v.1.15,2013-07-29 14:54:00,
2013-07-29 10:04:00,69.6,-35.5,30.09,NE,43,0.0,0.0,1,0.00,,,0.08,Wunderground v.1.15,2013-07-29 15:04:00,
2013-07-29 10:19:00,69.8,-35.3,30.09,NE,40,1.0,1.0,1,0.00,,,0.08,Wunderground v.1.15,2013-07-29 15:19:00,
2013-07-29 10:29:00,70.0,-35.2,30.10,NNE,18,0.0,0.0,1,0.00,,,0.08,Wunderground v.1.15,2013-07-29 15:29:00,
2013-07-29 10:39:00,69.6,-35.5,30.10,North,354,1.0,1.0,1,0.00,,,0.08,Wunderground v.1.15,2013-07-29 15:39:00,
2013-07-29 10:49:00,69.4,-35.6,30.10,North,11,1.0,6.0,1,0.00,,,0.08,Wunderground v.1.15,2013-07-29 15:49:00,
2013-07-29 10:59:00,69.5,-35.5,30.09,NNE,32,1.0,1.0,1,0.00,,,0.08,Wunderground v.1.15,2013-07-29 15:59:00,
2013-07-29 11:14:00,69.7,-35.4,30.08,North,3,0.0,3.0,1,0.00,,,0.08,Wunderground v.1.15,2013-07-29 16:14:00,
2013-07-29 11:19:00,69.7,-35.4,30.08,NNE,32,1.0,4.0,1,0.00,,,0.08,Wunderground v.1.15,2013-07-29 16:19:00,
2013-07-29 11:34:00,70.1,-35.2,30.07,East,101,2.0,3.0,1,0.00,,,0.09,Wunderground v.1.15,2013-07-29 16:34:00,
2013-07-29 11:44:00,70.1,-35.2,30.07,NNE,28,2.0,2.0,1,0.00,,,0.09,Wunderground v.1.15,2013-07-29 16:44:00,
2013-07-29 11:50:00,70.1,-35.2,30.08,East,93,2.0,5.0,1,0.00,,,0.09,Wunderground v.1.15,2013-07-29 16:50:00,
2013-07-29 11:59:00,70.1,-35.2,30.08,ESE,113,1.0,5.0,1,0.00,,,0.09,Wunderground v.1.15,2013-07-29 16:59:00,
2013-07-29 12:09:00,70.1,-35.2,30.07,NNE,30,2.0,5.0,1,0.00,,,0.09,Wunderground v.1.15,2013-07-29 17:09:00,
2013-07-29 12:24:00,70.3,-35.0,30.07,ENE,61,1.0,5.0,1,0.00,,,0.09,Wunderground v.1.15,2013-07-29 17:24:00,
2013-07-29 12:35:00,70.9,-34.7,30.07,ENE,65,1.0,5.0,1,0.00,,,0.09,Wunderground v.1.15,2013-07-29 17:35:00,
2013-07-29 12:44:00,71.5,-34.3,30.06,East,93,3.0,6.0,1,0.00,,,0.09,Wunderground v.1.15,2013-07-29 17:44:00,
2013-07-29 12:54:00,72.0,-34.0,30.07,NE,49,3.0,5.0,1,0.00,,,0.09,Wunderground v.1.15,2013-07-29 17:54:00,
2013-07-29 13:04:00,72.0,-34.0,30.07,NNE,18,4.0,5.0,1,0.00,,,0.09,Wunderground v.1.15,2013-07-29 18:04:00,
2013-07-29 13:14:00,72.4,-33.8,30.07,NW,321,1.0,5.0,1,0.00,,,0.09,Wunderground v.1.15,2013-07-29 18:14:00,
2013-07-29 13:20:00,72.4,-33.8,30.06,North,5,2.0,5.0,1,0.00,,,0.09,Wunderground v.1.15,2013-07-29 18:20:00,
2013-07-29 13:29:00,72.9,-33.5,30.06,NE,38,3.0,3.0,1,0.00,,,0.09,Wunderground v.1.15,2013-07-29 18:29:00,
2013-07-29 13:39:00,74.4,-32.6,30.06,NE,39,2.0,2.0,1,0.00,,,0.09,Wunderground v.1.15,2013-07-29 18:39:00,
2013-07-29 13:49:00,75.4,-31.9,30.06,North,359,2.0,5.0,1,0.00,,,0.09,Wunderground v.1.15,2013-07-29 18:49:00,
2013-07-29 13:54:00,75.5,-31.9,30.06,NNE,27,3.0,5.0,1,0.00,,,0.09,Wunderground v.1.15,2013-07-29 18:54:00,
2013-07-29 14:04:00,76.7,-31.2,30.05,NE,43,5.0,5.0,1,0.00,,,0.09,Wunderground v.1.15,2013-07-29 19:04:00,
2013-07-29 14:14:00,77.1,-30.9,30.05,NE,56,4.0,5.0,1,0.00,,,0.09,Wunderground v.1.15,2013-07-29 19:14:00,
2013-07-29 14:24:00,78.1,-30.3,30.04,North,6,4.0,5.0,1,0.00,,,0.09,Wunderground v.1.15,2013-07-29 19:24:00,
2013-07-29 14:30:00,78.4,-30.1,30.04,North,6,3.0,5.0,1,0.00,,,0.09,Wunderground v.1.15,2013-07-29 19:30:00,
2013-07-29 14:44:00,78.3,-30.2,30.05,East,99,3.0,5.0,1,0.00,,,0.09,Wunderground v.1.15,2013-07-29 19:44:00,
2013-07-29 14:54:00,78.6,-30.0,30.05,ENE,68,2.0,5.0,1,0.00,,,0.09,Wunderground v.1.15,2013-07-29 19:54:00,
2013-07-29 15:04:00,77.3,-30.8,30.05,NE,46,4.0,5.0,1,0.00,,,0.09,Wunderground v.1.15,2013-07-29 20:04:00,
2013-07-29 15:10:00,77.0,-31.0,30.05,North,349,5.0,5.0,1,0.00,,,0.09,Wunderground v.1.15,2013-07-29 20:10:00,
2013-07-29 15:19:00,77.2,-30.9,30.04,NE,34,3.0,3.0,1,0.00,,,0.09,Wunderground v.1.15,2013-07-29 20:19:00,
2013-07-29 15:29:00,77.0,-31.0,30.04,NNE,18,3.0,3.0,1,0.00,,,0.09,Wunderground v.1.15,2013-07-29 20:29:00,
2013-07-29 15:39:00,76.6,-31.2,30.03,NNE,25,3.0,5.0,1,0.00,,,0.09,Wunderground v.1.15,2013-07-29 20:39:00,
2013-07-29 15:49:00,76.7,-31.2,30.03,NE,45,3.0,5.0,1,0.00,,,0.09,Wunderground v.1.15,2013-07-29 20:49:00,
2013-07-29 16:00:00,76.9,-31.0,30.03,North,358,3.0,5.0,1,0.00,,,0.09,Wunderground v.1.15,2013-07-29 21:00:00,
2013-07-29 16:14:00,77.1,-30.9,30.03,NNE,18,2.0,5.0,1,0.00,,,0.09,Wunderground v.1.15,2013-07-29 21:14:00,
2013-07-29 16:24:00,77.0,-31.0,30.03,NNE,17,3.0,5.0,1,0.00,,,0.09,Wunderground v.1.15,2013-07-29 21:24:00,
2013-07-29 16:29:00,76.9,-31.0,30.03,NE,52,4.0,6.0,1,0.00,,,0.09,Wunderground v.1.15,2013-07-29 21:29:00,
2013-07-29 16:40:00,76.6,-31.2,30.02,North,8,3.0,5.0,1,0.00,,,0.09,Wunderground v.1.15,2013-07-29 21:40:00,
2013-07-29 16:49:00,76.5,-31.3,30.02,NNW,338,3.0,3.0,1,0.00,,,0.09,Wunderground v.1.15,2013-07-29 21:49:00,
2013-07-29 17:09:00,76.1,-31.5,30.02,NNE,15,2.0,5.0,1,0.00,,,0.09,Wunderground v.1.15,2013-07-29 22:09:00,
2013-07-29 17:19:00,75.9,-31.6,30.01,NNE,22,3.0,3.0,1,0.00,,,0.09,Wunderground v.1.15,2013-07-29 22:19:00,
2013-07-29 17:30:00,75.9,-31.6,30.01,North,353,2.0,5.0,1,0.00,,,0.09,Wunderground v.1.15,2013-07-29 22:30:00,
2013-07-29 17:39:00,75.9,-31.6,30.01,NNE,32,2.0,2.0,1,0.00,,,0.09,Wunderground v.1.15,2013-07-29 22:39:00,
2013-07-29 17:49:00,75.7,-31.8,30.01,East,84,3.0,3.0,1,0.00,,,0.09,Wunderground v.1.15,2013-07-29 22:49:00,
2013-07-29 17:59:00,75.6,-31.8,30.02,NE,39,1.0,5.0,1,0.00,,,0.09,Wunderground v.1.15,2013-07-29 22:59:00,
2013-07-29 18:15:00,75.5,-31.9,30.02,NE,34,1.0,3.0,1,0.00,,,0.09,Wunderground v.1.15,2013-07-29 23:15:00,
2013-07-29 18:24:00,75.5,-31.9,30.01,North,5,2.0,2.0,1,0.00,,,0.09,Wunderground v.1.15,2013-07-29 23:24:00,
2013-07-29 18:34:00,75.4,-31.9,30.01,ENE,57,2.0,5.0,1,0.00,,,0.09,Wunderground v.1.15,2013-07-29 23:34:00,
2013-07-29 18:44:00,75.3,-32.0,30.01,NE,40,2.0,5.0,1,0.00,,,0.09,Wunderground v.1.15,2013-07-29 23:44:00,
2013-07-29 18:55:00,75.1,-32.1,30.01,NE,51,3.0,5.0,1,0.00,,,0.09,Wunderground v.1.15,2013-07-29 23:55:00,
2013-07-29 19:04:00,74.9,-32.2,30.02,NNE,33,2.0,5.0,1,0.00,,,0.09,Wunderground v.1.15,2013-07-30 00:04:00,
2013-07-29 19:19:00,74.5,-32.5,30.02,NE,37,2.0,2.0,1,0.00,,,0.09,Wunderground v.1.15,2013-07-30 00:19:00,
2013-07-29 19:29:00,74.2,-32.7,30.01,North,353,2.0,5.0,1,0.00,,,0.09,Wunderground v.1.15,2013-07-30 00:29:00,
2013-07-29 19:35:00,74.1,-32.7,30.01,North,3,2.0,7.0,1,0.00,,,0.09,Wunderground v.1.15,2013-07-30 00:35:00,
2013-07-29 19:49:00,73.8,-32.9,30.01,NNE,30,3.0,5.0,1,0.00,,,0.09,Wunderground v.1.15,2013-07-30 00:49:00,
2013-07-29 19:59:00,73.6,-33.0,30.01,SE,138,3.0,3.0,1,0.00,,,0.09,Wunderground v.1.15,2013-07-30 00:59:00,
2013-07-29 20:15:00,73.4,-33.2,30.01,NNE,28,3.0,6.0,1,0.00,,,0.09,Wunderground v.1.15,2013-07-30 01:15:00,
2013-07-29 20:24:00,73.3,-33.2,30.01,NNE,18,2.0,4.0,1,0.00,,,0.09,Wunderground v.1.15,2013-07-30 01:24:00,
2013-07-29 20:34:00,73.3,-33.2,30.02,NE,49,2.0,6.0,1,0.00,,,0.09,Wunderground v.1.15,2013-07-30 01:34:00,
2013-07-29 20:44:00,73.0,-33.4,30.02,ENE,60,1.0,5.0,1,0.00,,,0.09,Wunderground v.1.15,2013-07-30 01:44:00,
2013-07-29 20:55:00,72.4,-33.8,30.01,NE,43,1.0,2.0,1,0.00,,,0.10,Wunderground v.1.15,2013-07-30 01:55:00,
2013-07-29 21:04:00,72.0,-34.0,30.01,ENE,58,1.0,2.0,1,0.05,,,0.11,Wunderground v.1.15,2013-07-30 02:04:00,
2013-07-29 21:14:00,71.7,-34.2,30.02,NNE,28,1.0,5.0,1,0.06,,,0.12,Wunderground v.1.15,2013-07-30 02:14:00,
2013-07-29 21:24:00,71.4,-34.4,30.02,NE,38,0.0,5.0,1,0.07,,,0.13,Wunderground v.1.15,2013-07-30 02:24:00,
2013-07-29 21:34:00,71.1,-34.5,30.02,North,9,0.0,5.0,1,0.07,,,0.14,Wunderground v.1.15,2013-07-30 02:34:00,
2013-07-29 21:39:00,71.0,-34.6,30.02,NE,48,0.0,5.0,1,0.07,,,0.15,Wunderground v.1.15,2013-07-30 02:39:00,
2013-07-29 21:49:00,70.8,-34.7,30.02,ENE,61,0.0,5.0,1,0.08,,,0.16,Wunderground v.1.15,2013-07-30 02:49:00,
2013-07-29 21:59:00,70.7,-34.8,30.02,NE,35,0.0,5.0,1,0.05,,,0.17,Wunderground v.1.15,2013-07-30 02:59:00,
2013-07-29 22:14:00,70.6,-34.9,30.02,SE,134,1.0,2.0,1,0.00,,,0.18,Wunderground v.1.15,2013-07-30 03:14:00,
2013-07-29 22:19:00,70.6,-34.9,30.02,NE,51,1.0,1.0,1,0.00,,,0.18,Wunderground v.1.15,2013-07-30 03:19:00,
2013-07-29 22:29:00,70.5,-34.9,30.01,NNW,333,0.0,5.0,1,0.05,,,0.19,Wunderground v.1.15,2013-07-30 03:29:00,
2013-07-29 22:39:00,70.3,-35.0,30.01,ESE,117,1.0,1.0,1,0.04,,,0.19,Wunderground v.1.15,2013-07-30 03:39:00,
2013-07-29 22:49:00,70.2,-35.1,30.01,East,95,1.0,1.0,1,0.00,,,0.20,Wunderground v.1.15,2013-07-30 03:49:00,
2013-07-29 23:00:00,70.1,-35.2,30.01,East,87,0.0,5.0,1,0.00,,,0.20,Wunderground v.1.15,2013-07-30 04:00:00,
2013-07-29 23:04:00,70.0,-35.2,30.01,SE,132,0.0,5.0,1,0.00,,,0.20,Wunderground v.1.15,2013-07-30 04:04:00,
2013-07-29 23:09:00,70.0,-35.2,30.01,ENE,61,1.0,5.0,1,0.00,,,0.20,Wunderground v.1.15,2013-07-30 04:09:00,
2013-07-29 23:19:00,69.9,-35.3,30.02,NE,43,1.0,1.0,1,0.00,,,0.21,Wunderground v.1.15,2013-07-30 04:19:00,
2013-07-29 23:24:00,69.9,-35.3,30.02,ENE,70,1.0,5.0,1,0.00,,,0.21,Wunderground v.1.15,2013-07-30 04:24:00,
2013-07-29 23:29:00,69.9,-35.3,30.02,ESE,113,1.0,1.0,1,0.00,,,0.21,Wunderground v.1.15,2013-07-30 04:29:00,
2013-07-29 23:40:00,69.9,-35.3,30.02,North,360,1.0,1.0,1,0.00,,,0.22,Wunderground v.1.15,2013-07-30 04:40:00,
2013-07-29 23:49:00,69.8,-35.3,30.01,NNE,25,0.0,5.0,1,0.05,,,0.23,Wunderground v.1.15,2013-07-30 04:49:00,
2013-07-29 23:59:00,69.7,-35.4,30.01,NE,39,0.0,5.0,1,0.04,,,0.23,Wunderground v.1.15,2013-07-30 04:59:00,